{"data":{"norad_id":65995,"intl_designator":"2025-231A","name":"HULIANWANG DIGUI-87","alt_names":[],"object_type":"PAYLOAD","status":"ACTIVE","operator":null,"country":"PRC","launch_date":"2025-10-16","launch_site_code":"WSC","launch_vehicle":null,"mission":null,"orbit_class":"UNKNOWN","rcs_meters":null,"size_class":null,"mass_kg":null,"dimensions":null,"purposes":[],"wikipedia_slug":null,"has_3d_model":false,"image_url":null,"decayed_at":null,"tle_current":{"epoch":"2026-05-25T00:14:16.719072Z","epoch_age_seconds":68093,"freshness":"FRESH","line1":"1 65995U 25231A   26145.00991573 -.00000108  00000+0  35388-4 0  9999","line2":"2 65995  50.0004 258.9745 0000820 153.6804 206.4110 13.29327366 29807","mean_motion":13.29327366,"eccentricity":8.2e-5,"inclination_deg":50.0004,"raan_deg":258.9745,"arg_perigee_deg":153.6804,"mean_anomaly_deg":206.411,"bstar":3.5388e-5,"rev_number":2980,"period_min":108.32546119418,"perigee_km":1148.6841651656,"apogee_km":1149.9186650657,"semimajor_km":7527.4384151157,"source":"CELESTRAK","updated_at":"2026-05-25T13:38:05.882784Z"}}}